EAL1853 KDFW-KCLT

Flight info

Callsign EAL1853
Flight time 1h 54m
Altitude 37000
Route FORCK3 FORCK ELD IZAAC Q30 VLKNN THRSR BESTT JONZE5
Aircraft B752/M-L/3033

Departure

Time 2026-05-04 20:46
Airport Dallas Fort Worth International Airport (KDFW)

Arrival

Time 2026-05-04 22:41
Airport Charlotte Douglas International Airport (KCLT)
Time Latitude Longitude Altitude Speed Heading
2026-05-04 20:38 32.90528 -97.03511 617 ft 0 kts 270°
2026-05-04 20:41 32.90528 -97.03512 617 ft 0 kts 270°
2026-05-04 20:41 32.91512 -97.02989 616 ft 0 kts 180°
2026-05-04 20:45 32.91511 -97.02989 617 ft 2 kts 181°
2026-05-04 20:46 32.91496 -97.02991 617 ft 1 kts 188°
2026-05-04 20:46 32.91336 -97.02992 617 ft 68 kts 179°
2026-05-04 20:46 32.90503 -97.02994 626 ft 167 kts 180°
2026-05-04 20:46 32.89197 -97.03003 1413 ft 198 kts 180°
2026-05-04 20:47 32.87782 -97.02993 2857 ft 204 kts 179°
2026-05-04 20:47 32.86375 -97.02985 3957 ft 202 kts 180°
2026-05-04 20:47 32.84930 -97.02984 4693 ft 215 kts 180°
2026-05-04 20:47 32.83376 -97.02981 5291 ft 231 kts 182°
2026-05-04 20:48 32.81736 -97.02983 5947 ft 244 kts 183°
2026-05-04 20:48 32.79981 -97.02988 6719 ft 252 kts 184°
2026-05-04 20:48 32.78180 -97.02988 7373 ft 266 kts 184°
2026-05-04 20:48 32.76319 -97.02985 8081 ft 273 kts 184°
2026-05-04 20:49 32.74402 -97.02981 8893 ft 277 kts 184°
2026-05-04 20:49 32.72467 -97.02667 9652 ft 288 kts 165°
2026-05-04 20:49 32.70736 -97.01395 10346 ft 302 kts 140°
2026-05-04 20:49 32.69489 -96.99298 10782 ft 322 kts 117°
2026-05-04 20:50 32.68790 -96.96703 11169 ft 339 kts 102°
2026-05-04 20:50 32.68559 -96.93854 11523 ft 355 kts 91°
2026-05-04 20:50 32.68660 -96.90878 12000 ft 364 kts 85°
2026-05-04 20:50 32.68942 -96.87873 12646 ft 368 kts 82°
2026-05-04 20:51 32.69279 -96.84847 13323 ft 371 kts 82°
2026-05-04 20:51 32.69659 -96.81793 14023 ft 375 kts 80°
2026-05-04 20:51 32.70132 -96.78733 14686 ft 379 kts 78°
2026-05-04 20:51 32.70693 -96.75701 15339 ft 382 kts 76°
2026-05-04 20:52 32.71335 -96.72614 15945 ft 386 kts 75°
2026-05-04 20:52 32.72015 -96.69515 16544 ft 390 kts 74°
2026-05-04 20:52 32.72715 -96.66394 17126 ft 393 kts 74°
2026-05-04 20:52 32.73417 -96.63242 17680 ft 396 kts 74°
2026-05-04 20:53 32.74112 -96.60053 18243 ft 400 kts 75°
2026-05-04 20:53 32.74804 -96.56839 18803 ft 403 kts 75°
2026-05-04 20:53 32.75500 -96.53600 19341 ft 406 kts 75°
2026-05-04 20:53 32.76201 -96.50332 19867 ft 410 kts 75°
2026-05-04 20:54 32.76892 -96.47025 20379 ft 412 kts 75°
2026-05-04 20:54 32.77568 -96.43750 20868 ft 415 kts 75°
2026-05-04 20:54 32.78272 -96.40404 21383 ft 416 kts 76°
2026-05-04 20:54 32.78972 -96.37076 22020 ft 413 kts 76°
2026-05-04 20:55 32.79603 -96.33766 22778 ft 406 kts 78°
2026-05-04 20:55 32.80123 -96.30481 23427 ft 405 kts 70°
2026-05-04 20:55 32.80598 -96.27166 23968 ft 407 kts 81°
2026-05-04 20:55 32.80969 -96.23835 24557 ft 407 kts 80°
2026-05-04 20:56 32.81272 -96.20477 25026 ft 410 kts 79°
2026-05-04 20:56 32.81563 -96.17076 25362 ft 417 kts 78°
2026-05-04 20:56 32.81881 -96.13607 25551 ft 427 kts 78°
2026-05-04 20:56 32.82243 -96.10045 25651 ft 440 kts 78°
2026-05-04 20:57 32.82635 -96.06381 25736 ft 453 kts 78°
2026-05-04 20:57 32.83033 -96.02601 25818 ft 466 kts 78°
2026-05-04 20:57 32.83439 -95.98722 25901 ft 478 kts 78°
2026-05-04 20:57 32.83849 -95.94804 25995 ft 490 kts 78°
2026-05-04 20:58 32.84255 -95.90738 26199 ft 498 kts 79°
2026-05-04 20:58 32.84653 -95.86621 26526 ft 502 kts 79°
2026-05-04 20:58 32.85063 -95.82496 26936 ft 503 kts 78°
2026-05-04 20:58 32.85481 -95.78348 27344 ft 505 kts 78°
2026-05-04 20:59 32.85900 -95.74182 27694 ft 509 kts 78°
2026-05-04 20:59 32.86313 -95.70044 28036 ft 512 kts 78°
2026-05-04 20:59 32.86738 -95.65818 28432 ft 514 kts 77°
2026-05-04 20:59 32.87179 -95.61535 28860 ft 516 kts 77°
2026-05-04 21:00 32.87617 -95.57289 29214 ft 519 kts 77°
2026-05-04 21:00 32.88056 -95.53019 29533 ft 522 kts 77°
2026-05-04 21:00 32.88496 -95.48709 29777 ft 528 kts 77°
2026-05-04 21:00 32.88919 -95.44401 29909 ft 536 kts 77°
2026-05-04 21:01 32.89338 -95.39955 30033 ft 543 kts 78°
2026-05-04 21:01 32.89751 -95.35473 30274 ft 547 kts 78°
2026-05-04 21:01 32.90180 -95.30970 30636 ft 547 kts 77°
2026-05-04 21:01 32.90616 -95.26484 31041 ft 546 kts 77°
2026-05-04 21:02 32.91052 -95.21987 31366 ft 548 kts 77°
2026-05-04 21:02 32.91490 -95.17472 31639 ft 550 kts 77°
2026-05-04 21:02 32.91919 -95.12945 31999 ft 549 kts 77°
2026-05-04 21:02 32.92351 -95.08432 32377 ft 548 kts 77°
2026-05-04 21:03 32.92788 -95.03931 32762 ft 547 kts 77°
2026-05-04 21:03 32.93225 -94.99434 33125 ft 546 kts 77°
2026-05-04 21:03 32.93659 -94.94940 33477 ft 545 kts 77°
2026-05-04 21:03 32.94088 -94.90458 33817 ft 545 kts 76°
2026-05-04 21:04 32.94507 -94.86033 34134 ft 545 kts 76°
2026-05-04 21:04 32.94926 -94.81554 34410 ft 545 kts 76°
2026-05-04 21:04 32.95344 -94.77055 34692 ft 546 kts 76°
2026-05-04 21:04 32.95757 -94.72566 34990 ft 545 kts 76°
2026-05-04 21:05 32.96165 -94.68074 35273 ft 545 kts 77°
2026-05-04 21:05 32.96574 -94.63583 35505 ft 546 kts 76°
2026-05-04 21:05 32.96984 -94.59075 35754 ft 547 kts 76°
2026-05-04 21:05 32.97393 -94.54578 36024 ft 547 kts 76°
2026-05-04 21:06 32.97799 -94.50064 36304 ft 546 kts 76°
2026-05-04 21:06 32.98201 -94.45567 36542 ft 547 kts 76°
2026-05-04 21:06 32.98601 -94.41056 36760 ft 547 kts 76°
2026-05-04 21:06 32.98999 -94.36545 36895 ft 548 kts 76°
2026-05-04 21:07 32.99798 -94.27580 36978 ft 545 kts 75°
2026-05-04 21:07 33.01036 -94.18737 36983 ft 537 kts 69°
2026-05-04 21:08 33.02691 -94.10100 36986 ft 533 kts 67°
2026-05-04 21:08 33.04382 -94.01495 36980 ft 533 kts 68°
2026-05-04 21:09 33.05924 -93.92826 36977 ft 534 kts 70°
2026-05-04 21:09 33.07389 -93.84141 36976 ft 534 kts 70°
2026-05-04 21:10 33.08834 -93.75504 36973 ft 534 kts 70°
2026-05-04 21:10 33.10335 -93.66830 36977 ft 532 kts 69°
2026-05-04 21:11 33.11836 -93.58172 36978 ft 533 kts 70°
2026-05-04 21:11 33.13308 -93.49485 36978 ft 533 kts 70°
2026-05-04 21:12 33.14761 -93.40868 36985 ft 533 kts 70°
2026-05-04 21:12 33.16229 -93.32192 36958 ft 533 kts 70°
2026-05-04 21:13 33.17705 -93.23521 36955 ft 533 kts 70°
2026-05-04 21:13 33.19171 -93.14833 36955 ft 533 kts 70°
2026-05-04 21:14 33.20588 -93.06129 36955 ft 534 kts 70°
2026-05-04 21:14 33.22035 -92.97440 36960 ft 533 kts 70°
2026-05-04 21:15 33.23477 -92.88740 36957 ft 534 kts 70°
2026-05-04 21:15 33.24896 -92.80090 36956 ft 533 kts 70°
2026-05-04 21:16 33.26236 -92.71340 36962 ft 537 kts 72°
2026-05-04 21:16 33.27166 -92.62432 36962 ft 542 kts 76°
2026-05-04 21:17 33.27856 -92.53457 36957 ft 542 kts 76°
2026-05-04 21:17 33.28581 -92.44502 36956 ft 541 kts 75°
2026-05-04 21:18 33.29383 -92.35558 36951 ft 540 kts 75°
2026-05-04 21:18 33.30234 -92.26642 36956 ft 540 kts 75°
2026-05-04 21:19 33.31069 -92.17751 36956 ft 540 kts 75°
2026-05-04 21:19 33.31848 -92.08810 36957 ft 540 kts 76°
2026-05-04 21:20 33.32624 -91.99887 36961 ft 539 kts 75°
2026-05-04 21:20 33.33423 -91.90959 36960 ft 539 kts 75°
2026-05-04 21:21 33.34183 -91.82054 36965 ft 539 kts 76°
2026-05-04 21:21 33.34937 -91.73132 36966 ft 539 kts 75°
2026-05-04 21:22 33.35576 -91.65721 36966 ft 538 kts 76°
2026-05-04 21:22 33.36345 -91.56811 36967 ft 538 kts 76°
2026-05-04 21:23 33.37079 -91.47914 36966 ft 537 kts 76°
2026-05-04 21:23 33.37809 -91.39007 36966 ft 537 kts 76°
2026-05-04 21:24 33.38535 -91.30173 36966 ft 536 kts 76°
2026-05-04 21:24 33.39272 -91.21290 36965 ft 537 kts 76°
2026-05-04 21:25 33.40014 -91.12391 36965 ft 537 kts 77°
2026-05-04 21:25 33.40725 -91.03526 36958 ft 532 kts 77°
2026-05-04 21:26 33.41417 -90.94753 36960 ft 529 kts 77°
2026-05-04 21:26 33.42138 -90.85961 36965 ft 533 kts 77°
2026-05-04 21:27 33.42821 -90.77091 36965 ft 535 kts 78°
2026-05-04 21:27 33.43479 -90.68265 36968 ft 536 kts 78°
2026-05-04 21:28 33.44166 -90.59373 36973 ft 535 kts 78°
2026-05-04 21:28 33.44837 -90.50502 36973 ft 534 kts 78°
2026-05-04 21:29 33.45487 -90.41626 36980 ft 534 kts 78°
2026-05-04 21:29 33.46159 -90.32782 36984 ft 532 kts 78°
2026-05-04 21:30 33.46740 -90.23925 36987 ft 535 kts 81°
2026-05-04 21:30 33.46948 -90.15048 36994 ft 537 kts 84°
2026-05-04 21:31 33.46994 -90.01637 36992 ft 536 kts 84°
2026-05-04 21:32 33.47112 -89.92714 37009 ft 534 kts 83°
2026-05-04 21:32 33.47288 -89.83813 37016 ft 534 kts 83°
2026-05-04 21:33 33.47457 -89.74911 37015 ft 534 kts 83°
2026-05-04 21:33 33.47601 -89.66067 37017 ft 534 kts 83°
2026-05-04 21:34 33.47692 -89.57156 37013 ft 534 kts 84°
2026-05-04 21:34 33.47827 -89.48273 37013 ft 533 kts 83°
2026-05-04 21:35 33.47938 -89.39374 37014 ft 534 kts 84°
2026-05-04 21:35 33.48027 -89.30480 37010 ft 533 kts 84°
2026-05-04 21:36 33.48114 -89.21657 37012 ft 533 kts 84°
2026-05-04 21:36 33.48215 -89.12773 37010 ft 533 kts 84°
2026-05-04 21:37 33.48331 -89.03888 37009 ft 533 kts 84°
2026-05-04 21:37 33.48401 -88.94987 37011 ft 534 kts 84°
2026-05-04 21:38 33.48445 -88.86093 37008 ft 534 kts 84°
2026-05-04 21:38 33.48522 -88.77256 37011 ft 533 kts 84°
2026-05-04 21:39 33.48597 -88.68369 37014 ft 533 kts 85°
2026-05-04 21:39 33.48640 -88.59487 37010 ft 532 kts 85°
2026-05-04 21:40 33.48730 -88.50626 37008 ft 530 kts 82°
2026-05-04 21:40 33.49482 -88.41897 37011 ft 524 kts 76°
2026-05-04 21:41 33.50691 -88.33363 36985 ft 515 kts 73°
2026-05-04 21:41 33.51186 -88.30051 36984 ft 514 kts 73°
2026-05-04 21:42 33.52354 -88.21556 36988 ft 519 kts 76°
2026-05-04 21:42 33.53352 -88.13011 36985 ft 521 kts 77°
2026-05-04 21:43 33.54289 -88.04395 36989 ft 521 kts 78°
2026-05-04 21:43 33.55265 -87.95792 36989 ft 521 kts 77°
2026-05-04 21:44 33.56284 -87.87191 36989 ft 520 kts 77°
2026-05-04 21:44 33.57294 -87.78582 36993 ft 521 kts 77°
2026-05-04 21:45 33.58251 -87.70013 36990 ft 521 kts 78°
2026-05-04 21:45 33.59228 -87.61412 36993 ft 519 kts 78°
2026-05-04 21:46 33.60212 -87.52831 36999 ft 519 kts 78°
2026-05-04 21:46 33.61148 -87.44244 37000 ft 518 kts 78°
2026-05-04 21:47 33.62115 -87.35680 37013 ft 518 kts 78°
2026-05-04 21:47 33.63066 -87.27109 37017 ft 518 kts 78°
2026-05-04 21:48 33.63998 -87.18592 37014 ft 517 kts 79°
2026-05-04 21:48 33.64917 -87.10034 37034 ft 516 kts 79°
2026-05-04 21:49 33.65868 -87.01475 37034 ft 516 kts 79°
2026-05-04 21:49 33.66814 -86.92943 37039 ft 515 kts 79°
2026-05-04 21:50 33.67361 -86.84340 37052 ft 518 kts 86°
2026-05-04 21:50 33.67243 -86.75651 37047 ft 520 kts 90°
2026-05-04 21:51 33.66930 -86.67042 37044 ft 519 kts 90°
2026-05-04 21:51 33.66759 -86.58387 37043 ft 518 kts 89°
2026-05-04 21:52 33.66720 -86.49742 37038 ft 517 kts 88°
2026-05-04 21:52 33.66683 -86.41109 37034 ft 516 kts 88°
2026-05-04 21:53 33.66608 -86.32491 37032 ft 516 kts 89°
2026-05-04 21:53 33.66476 -86.23869 37028 ft 516 kts 89°
2026-05-04 21:54 33.66379 -86.15251 37026 ft 516 kts 89°
2026-05-04 21:54 33.66249 -86.06678 37025 ft 516 kts 89°
2026-05-04 21:55 33.66133 -85.98063 37024 ft 516 kts 89°
2026-05-04 21:55 33.66006 -85.89439 37025 ft 516 kts 88°
2026-05-04 21:56 33.65877 -85.80842 37020 ft 513 kts 89°
2026-05-04 21:56 33.65740 -85.72284 37021 ft 514 kts 89°
2026-05-04 21:57 33.65601 -85.63694 37022 ft 515 kts 89°
2026-05-04 21:57 33.65469 -85.55135 37022 ft 516 kts 89°
2026-05-04 21:58 33.65331 -85.46525 37027 ft 516 kts 89°
2026-05-04 21:58 33.65136 -85.37894 37027 ft 517 kts 89°
2026-05-04 21:59 33.64978 -85.29252 37027 ft 516 kts 89°
2026-05-04 21:59 33.64802 -85.20619 37033 ft 517 kts 89°
2026-05-04 22:00 33.64604 -85.12051 37032 ft 517 kts 90°
2026-05-04 22:00 33.64407 -85.03435 37031 ft 517 kts 89°
2026-05-04 22:01 33.64215 -84.94812 37030 ft 517 kts 89°
2026-05-04 22:01 33.64028 -84.86182 37029 ft 516 kts 89°
2026-05-04 22:02 33.63848 -84.77567 37025 ft 516 kts 89°
2026-05-04 22:02 33.63669 -84.68956 37021 ft 516 kts 90°
2026-05-04 22:03 33.63434 -84.60346 37020 ft 516 kts 90°
2026-05-04 22:03 33.63204 -84.51723 37030 ft 516 kts 89°
2026-05-04 22:04 33.62984 -84.43102 37032 ft 517 kts 91°
2026-05-04 22:04 33.62512 -84.34539 37037 ft 517 kts 93°
2026-05-04 22:05 33.61827 -84.25933 37038 ft 517 kts 95°
2026-05-04 22:05 33.61137 -84.17336 37041 ft 516 kts 95°
2026-05-04 22:06 33.60524 -84.08755 37044 ft 515 kts 94°
2026-05-04 22:06 33.59948 -84.00232 37046 ft 515 kts 94°
2026-05-04 22:07 33.59340 -83.91665 37048 ft 514 kts 92°
2026-05-04 22:07 33.59968 -83.83169 37042 ft 510 kts 74°
2026-05-04 22:08 33.61749 -83.76462 37039 ft 506 kts 65°
2026-05-04 22:08 33.64303 -83.68589 37032 ft 506 kts 66°
2026-05-04 22:09 33.66543 -83.60541 37033 ft 508 kts 69°
2026-05-04 22:09 33.69145 -83.52746 37034 ft 504 kts 59°
2026-05-04 22:10 33.72666 -83.45488 37034 ft 500 kts 52°
2026-05-04 22:10 33.76466 -83.38490 37039 ft 500 kts 52°
2026-05-04 22:11 33.80106 -83.31361 37024 ft 500 kts 55°
2026-05-04 22:11 33.83560 -83.24162 37020 ft 499 kts 55°
2026-05-04 22:12 33.87202 -83.17036 37032 ft 497 kts 52°
2026-05-04 22:12 33.91016 -83.10072 37037 ft 497 kts 51°
2026-05-04 22:13 33.94879 -83.03153 37030 ft 498 kts 51°
2026-05-04 22:13 33.98681 -82.96247 36953 ft 500 kts 52°
2026-05-04 22:13 34.00610 -82.92684 36143 ft 513 kts 52°
2026-05-04 22:14 34.02554 -82.89069 35383 ft 515 kts 53°
2026-05-04 22:14 34.04498 -82.85440 34632 ft 514 kts 53°
2026-05-04 22:14 34.06434 -82.81821 33883 ft 513 kts 53°
2026-05-04 22:14 34.08365 -82.78210 33133 ft 511 kts 53°
2026-05-04 22:15 34.10283 -82.74620 32384 ft 508 kts 53°
2026-05-04 22:15 34.12195 -82.71042 31633 ft 505 kts 53°
2026-05-04 22:15 34.14096 -82.67493 30885 ft 503 kts 52°
2026-05-04 22:15 34.16001 -82.63960 30135 ft 501 kts 52°
2026-05-04 22:16 34.17898 -82.60439 29387 ft 499 kts 52°
2026-05-04 22:16 34.19780 -82.56934 28636 ft 494 kts 52°
2026-05-04 22:16 34.21635 -82.53471 27884 ft 486 kts 52°
2026-05-04 22:16 34.23449 -82.50077 27133 ft 477 kts 52°
2026-05-04 22:17 34.25234 -82.46727 26382 ft 469 kts 53°
2026-05-04 22:17 34.26963 -82.43480 26184 ft 448 kts 53°
2026-05-04 22:17 34.28604 -82.40386 26083 ft 426 kts 52°
2026-05-04 22:17 34.30173 -82.37443 26044 ft 405 kts 52°
2026-05-04 22:18 34.31658 -82.34656 26033 ft 384 kts 51°
2026-05-04 22:18 34.33067 -82.32005 26032 ft 366 kts 51°
2026-05-04 22:18 34.34408 -82.29503 26032 ft 351 kts 51°
2026-05-04 22:18 34.35718 -82.27062 26033 ft 341 kts 50°
2026-05-04 22:19 34.36993 -82.24681 26038 ft 333 kts 50°
2026-05-04 22:19 34.38248 -82.22329 26045 ft 332 kts 50°
2026-05-04 22:19 34.39513 -82.19958 26051 ft 338 kts 50°
2026-05-04 22:19 34.40827 -82.17516 26057 ft 356 kts 50°
2026-05-04 22:20 34.42232 -82.14905 26061 ft 383 kts 51°
2026-05-04 22:20 34.43736 -82.12093 26060 ft 411 kts 52°
2026-05-04 22:20 34.45305 -82.09134 26058 ft 433 kts 52°
2026-05-04 22:20 34.46933 -82.06018 26051 ft 441 kts 53°
2026-05-04 22:21 34.48565 -82.02869 26044 ft 438 kts 53°
2026-05-04 22:21 34.50161 -81.99778 26012 ft 427 kts 53°
2026-05-04 22:21 34.51732 -81.96757 25772 ft 419 kts 52°
2026-05-04 22:21 34.53278 -81.93801 25480 ft 410 kts 52°
2026-05-04 22:22 34.54788 -81.90912 25177 ft 398 kts 52°
2026-05-04 22:22 34.56257 -81.88115 24888 ft 386 kts 52°
2026-05-04 22:22 34.57667 -81.85454 24611 ft 376 kts 51°
2026-05-04 22:22 34.59073 -81.82798 24332 ft 370 kts 51°
2026-05-04 22:23 34.60457 -81.80179 24061 ft 368 kts 52°
2026-05-04 22:23 34.61789 -81.77561 23998 ft 361 kts 52°
2026-05-04 22:23 34.63133 -81.75001 24017 ft 358 kts 51°
2026-05-04 22:23 34.64497 -81.72456 24027 ft 364 kts 51°
2026-05-04 22:24 34.65927 -81.69841 24031 ft 380 kts 50°
2026-05-04 22:24 34.67437 -81.67122 24031 ft 393 kts 50°
2026-05-04 22:24 34.68976 -81.64364 24026 ft 394 kts 50°
2026-05-04 22:24 34.70500 -81.61627 24022 ft 385 kts 50°
2026-05-04 22:25 34.71985 -81.58949 23732 ft 383 kts 51°
2026-05-04 22:25 34.73412 -81.56153 22973 ft 394 kts 54°
2026-05-04 22:25 34.74836 -81.53301 22354 ft 393 kts 52°
2026-05-04 22:25 34.76366 -81.50570 21771 ft 386 kts 48°
2026-05-04 22:26 34.77995 -81.48061 21221 ft 379 kts 45°
2026-05-04 22:26 34.79729 -81.45692 20673 ft 372 kts 42°
2026-05-04 22:26 34.81511 -81.43433 20127 ft 366 kts 41°
2026-05-04 22:26 34.83294 -81.41246 19597 ft 361 kts 40°
2026-05-04 22:27 34.85051 -81.39085 19070 ft 356 kts 41°
2026-05-04 22:27 34.86773 -81.36936 18544 ft 352 kts 41°
2026-05-04 22:27 34.88466 -81.34803 18018 ft 348 kts 42°
2026-05-04 22:27 34.90136 -81.32674 17497 ft 345 kts 43°
2026-05-04 22:28 34.91778 -81.30560 16986 ft 341 kts 43°
2026-05-04 22:28 34.93391 -81.28478 16358 ft 342 kts 43°
2026-05-04 22:28 34.95028 -81.26368 15687 ft 344 kts 43°
2026-05-04 22:28 34.96680 -81.24246 15004 ft 345 kts 43°
2026-05-04 22:29 34.98340 -81.22113 14305 ft 347 kts 43°
2026-05-04 22:29 35.00008 -81.19969 13606 ft 349 kts 43°
2026-05-04 22:29 35.01680 -81.17814 12906 ft 350 kts 43°
2026-05-04 22:29 35.03353 -81.15649 12234 ft 350 kts 44°
2026-05-04 22:30 35.04996 -81.13521 11874 ft 340 kts 44°
2026-05-04 22:30 35.06580 -81.11468 11524 ft 331 kts 44°
2026-05-04 22:30 35.08141 -81.09447 11189 ft 322 kts 44°
2026-05-04 22:30 35.09853 -81.07747 10817 ft 311 kts 28°
2026-05-04 22:31 35.11807 -81.06729 10413 ft 302 kts 13°
2026-05-04 22:31 35.13857 -81.06305 10088 ft 293 kts
2026-05-04 22:31 35.15847 -81.06259 9867 ft 282 kts 355°
2026-05-04 22:31 35.17814 -81.06392 9399 ft 283 kts 353°
2026-05-04 22:32 35.19783 -81.06594 8923 ft 284 kts 352°
2026-05-04 22:32 35.21758 -81.06822 8449 ft 286 kts 352°
2026-05-04 22:32 35.23725 -81.07045 7979 ft 287 kts 352°
2026-05-04 22:32 35.25723 -81.07260 7504 ft 289 kts 353°
2026-05-04 22:33 35.27732 -81.07454 7029 ft 290 kts 353°
2026-05-04 22:33 35.29750 -81.07641 6554 ft 291 kts 354°
2026-05-04 22:33 35.31773 -81.07802 6183 ft 288 kts 355°
2026-05-04 22:33 35.33741 -81.07933 6054 ft 277 kts 355°
2026-05-04 22:34 35.35621 -81.08055 6004 ft 264 kts 355°
2026-05-04 22:34 35.37409 -81.08169 5993 ft 251 kts 355°
2026-05-04 22:34 35.39105 -81.08266 5988 ft 238 kts 357°
2026-05-04 22:34 35.40680 -81.07815 5950 ft 230 kts 27°
2026-05-04 22:35 35.41806 -81.06523 5933 ft 219 kts 58°
2026-05-04 22:35 35.42333 -81.04766 5584 ft 225 kts 77°
2026-05-04 22:35 35.42633 -81.02835 5098 ft 236 kts 83°
2026-05-04 22:35 35.42737 -81.00795 4606 ft 242 kts 90°
2026-05-04 22:36 35.42623 -80.98805 4121 ft 224 kts 102°
2026-05-04 22:36 35.41952 -80.97262 3978 ft 192 kts 137°
2026-05-04 22:36 35.40800 -80.96638 3994 ft 180 kts 172°
2026-05-04 22:36 35.39523 -80.96617 3978 ft 189 kts 183°
2026-05-04 22:37 35.38193 -80.96640 3674 ft 196 kts 180°
2026-05-04 22:37 35.36844 -80.96542 3422 ft 192 kts 176°
2026-05-04 22:37 35.35528 -80.96401 3197 ft 187 kts 176°
2026-05-04 22:37 35.34274 -80.96288 3068 ft 175 kts 178°
2026-05-04 22:38 35.33072 -80.96192 2856 ft 169 kts 178°
2026-05-04 22:38 35.31914 -80.96096 2618 ft 165 kts 178°
2026-05-04 22:38 35.30778 -80.95998 2375 ft 162 kts 178°
2026-05-04 22:38 35.29670 -80.95904 2168 ft 157 kts 178°
2026-05-04 22:39 35.28798 -80.95830 2011 ft 155 kts 178°
2026-05-04 22:39 35.27733 -80.95738 1779 ft 152 kts 178°
2026-05-04 22:39 35.26698 -80.95653 1595 ft 145 kts 178°
2026-05-04 22:39 35.25697 -80.95571 1376 ft 143 kts 177°
2026-05-04 22:40 35.24718 -80.95490 1189 ft 139 kts 176°
2026-05-04 22:40 35.23762 -80.95410 995 ft 135 kts 176°
2026-05-04 22:40 35.22830 -80.95329 784 ft 132 kts 176°
2026-05-04 22:40 35.21988 -80.95253 758 ft 104 kts 176°
2026-05-04 22:41 35.21500 -80.95210 758 ft 37 kts 176°
2026-05-04 22:41 35.21346 -80.95193 758 ft 9 kts 157°
2026-05-04 22:41 35.21304 -80.95134 758 ft 7 kts 94°
2026-05-04 22:41 35.21306 -80.95096 758 ft 0 kts 84°
2026-05-04 22:42 35.21306 -80.95091 758 ft 1 kts 84°
2026-05-04 22:42 35.21307 -80.95080 758 ft 0 kts 84°
2026-05-04 22:42 35.21308 -80.95072 758 ft 3 kts 84°
2026-05-04 22:42 35.21311 -80.95034 758 ft 7 kts 84°
2026-05-04 22:43 35.21347 -80.94990 758 ft 10 kts
2026-05-04 22:43 35.21457 -80.94998 758 ft 17 kts 356°
2026-05-04 22:43 35.21547 -80.94964 758 ft 14 kts 68°
2026-05-04 22:43 35.21586 -80.94849 758 ft 15 kts 67°
2026-05-04 22:44 35.21628 -80.94725 758 ft 16 kts 67°
2026-05-04 22:44 35.21700 -80.94620 758 ft 17 kts 31°
2026-05-04 22:44 35.21769 -80.94572 758 ft 0 kts 31°